When you browse on this site, cookies collect data to enhance your experience and personalize the content and advertising you see.
Visit our Privacy Policy to learn more. By continuing to use the site, you agree to this use of cookies and data.
  • In Slovakia
  • List of Countries
  • For 7 days
  • Water Temperature
  • Satellite Maps
  • Weather Map
  • Weather Widgets
  • user-avatar
    Login

    Hourly Weather Escaldes-Engordany

    Today, 18 January, Friday

    Time Temperature Precipitation Wind Pressure Humidity
    00:00 -4°C° 0 mm 2 mps 635 mmHg 87%
    01:00 -5°C° 0 mm 2 mps 635 mmHg 87%
    02:00 -5°C° 0 mm 2 mps 635 mmHg 87%
    03:00 -5°C° 0 mm 2 mps 635 mmHg 87%
    04:00 -6°C° 0 mm 2 mps 634 mmHg 85%
    05:00 -6°C° 0 mm 2 mps 634 mmHg 84%
    06:00 -6°C° 0 mm 2 mps 634 mmHg 82%
    07:00 -5°C° 0 mm 2 mps 634 mmHg 76%
    08:00 -2°C° 0 mm 1 mps 635 mmHg 70%
    09:00 -1°C° 0 mm 1 mps 635 mmHg 65%
    10:00 0°C° 0 mm 1 mps 635 mmHg 56%
    11:00 +1°C° 0 mm 1 mps 636 mmHg 48%
    12:00 +3°C° 0 mm 1 mps 636 mmHg 40%
    13:00 +2°C° 0 mm 1 mps 636 mmHg 43%
    14:00 +2°C° 0 mm 1 mps 635 mmHg 47%
    15:00 +2°C° 0 mm 1 mps 635 mmHg 51%
    16:00 +1°C° 0 mm 1 mps 634 mmHg 59%
    17:00 -1°C° 0 mm 1 mps 634 mmHg 68%
    18:00 -3°C° 0 mm 0 mps 634 mmHg 77%
    19:00 -3°C° 0 mm 0 mps 634 mmHg 76%
    20:00 -3°C° 0 mm 0 mps 634 mmHg 75%
    21:00 -3°C° 0 mm 0 mps 634 mmHg 75%
    22:00 -3°C° 0 mm 0 mps 634 mmHg 74%
    23:00 -3°C° 0 mm 0 mps 633 mmHg 73%

    Tomorrow, 19 January, Saturday

    Time Temperature Precipitation Wind Pressure Humidity
    00:00 -3°C° 0 mm 0 mps 633 mmHg 72%
    01:00 -4°C° 0 mm 0 mps 633 mmHg 71%
    02:00 -3°C° 0 mm 1 mps 633 mmHg 71%
    03:00 -3°C° 0 mm 1 mps 632 mmHg 70%
    04:00 -3°C° 0 mm 1 mps 633 mmHg 69%
    05:00 -2°C° 0 mm 1 mps 633 mmHg 68%
    06:00 -2°C° 0 mm 1 mps 633 mmHg 67%
    07:00 -2°C° 0 mm 0 mps 633 mmHg 67%
    08:00 -1°C° 0 mm 0 mps 634 mmHg 66%
    09:00 0°C° 0 mm 0 mps 634 mmHg 65%
    10:00 +1°C° 0 mm 0 mps 634 mmHg 63%
    11:00 +3°C° 0 mm 1 mps 635 mmHg 60%
    12:00 +4°C° 0 mm 1 mps 635 mmHg 57%
    13:00 +4°C° 0 mm 1 mps 634 mmHg 58%
    14:00 +4°C° 0 mm 1 mps 634 mmHg 59%
    15:00 +2°C° 0 mm 2 mps 633 mmHg 60%
    16:00 +1°C° 0 mm 2 mps 632 mmHg 68%
    17:00 0°C° 0 mm 1 mps 632 mmHg 76%
    18:00 -2°C° 0 mm 1 mps 631 mmHg 84%
    19:00 -1°C° 0 mm 1 mps 631 mmHg 84%
    20:00 -1°C° 0 mm 1 mps 631 mmHg 84%
    21:00 -1°C° 0 mm 1 mps 631 mmHg 84%
    22:00 -1°C° 0.1 mm 1 mps 631 mmHg 86%
    23:00 -1°C° 0.1 mm 1 mps 631 mmHg 87%

    Day after tomorrow, 20 January, Sunday

    Time Temperature Precipitation Wind Pressure Humidity
    00:00 -1°C° 0.1 mm 1 mps 630 mmHg 89%
    01:00 -1°C° 0.2 mm 1 mps 630 mmHg 90%
    02:00 -1°C° 0.2 mm 1 mps 630 mmHg 91%
    03:00 -2°C° 0.2 mm 0 mps 630 mmHg 91%
    04:00 -1°C° 0.1 mm 1 mps 630 mmHg 90%
    05:00 -1°C° 0.1 mm 1 mps 630 mmHg 89%
    06:00 -1°C° 0.1 mm 1 mps 631 mmHg 87%
    07:00 0°C° 0 mm 1 mps 631 mmHg 84%
    08:00 -2°C° 0 mm 2 mps 632 mmHg 80%
    09:00 -1°C° 0 mm 2 mps 632 mmHg 76%
    10:00 +1°C° 0 mm 2 mps 633 mmHg 71%
    11:00 +2°C° 0 mm 2 mps 633 mmHg 65%
    12:00 +3°C° 0 mm 2 mps 633 mmHg 60%
    13:00 +3°C° 0 mm 2 mps 633 mmHg 63%
    14:00 +2°C° 0 mm 2 mps 633 mmHg 65%
    15:00 +2°C° 0 mm 2 mps 633 mmHg 67%
    16:00 +1°C° 0 mm 2 mps 633 mmHg 75%
    17:00 -2°C° 0 mm 2 mps 633 mmHg 82%
    18:00 -3°C° 0 mm 2 mps 633 mmHg 89%
    19:00 -3°C° 0 mm 2 mps 633 mmHg 88%
    20:00 -3°C° 0 mm 2 mps 634 mmHg 87%
    21:00 -3°C° 0 mm 2 mps 634 mmHg 86%
    22:00 -3°C° 0.1 mm 2 mps 634 mmHg 86%
    23:00 -3°C° 0.1 mm 2 mps 634 mmHg 86%

    21 January, Monday

    Time Temperature Precipitation Wind Pressure Humidity
    00:00 -3°C° 0.1 mm 2 mps 634 mmHg 87%
    01:00 -3°C° 0.2 mm 2 mps 635 mmHg 87%
    02:00 -3°C° 0.2 mm 2 mps 635 mmHg 87%
    03:00 -2°C° 0.2 mm 2 mps 635 mmHg 87%
    04:00 -3°C° 0.2 mm 2 mps 635 mmHg 86%
    05:00 -3°C° 0.2 mm 2 mps 635 mmHg 86%
    06:00 -3°C° 0.2 mm 2 mps 635 mmHg 85%
    07:00 -4°C° 0.2 mm 3 mps 636 mmHg 83%
    08:00 -2°C° 0.2 mm 3 mps 636 mmHg 80%
    09:00 -2°C° 0.2 mm 3 mps 637 mmHg 77%
    10:00 -1°C° 0.2 mm 3 mps 637 mmHg 73%
    11:00 -1°C° 0.2 mm 3 mps 637 mmHg 70%
    12:00 -2°C° 0.2 mm 4 mps 638 mmHg 67%
    13:00 -2°C° 0.1 mm 4 mps 638 mmHg 67%
    14:00 -2°C° 0.1 mm 4 mps 637 mmHg 68%
    15:00 -2°C° 0.1 mm 4 mps 637 mmHg 69%
    16:00 -2°C° 0.1 mm 3 mps 637 mmHg 74%
    17:00 -5°C° 0.1 mm 3 mps 637 mmHg 79%
    18:00 -6°C° 0.1 mm 3 mps 637 mmHg 84%
    19:00 -6°C° 0 mm 3 mps 637 mmHg 84%
    20:00 -7°C° 0 mm 3 mps 638 mmHg 85%
    21:00 -7°C° 0 mm 3 mps 638 mmHg 86%
    22:00 -8°C° 0 mm 3 mps 638 mmHg 85%
    23:00 -8°C° 0 mm 3 mps 637 mmHg 84%

    22 January, Tuesday

    Time Temperature Precipitation Wind Pressure Humidity
    00:00 -8°C° 0 mm 2 mps 637 mmHg 83%
    01:00 -8°C° 0 mm 2 mps 637 mmHg 77%
    02:00 -8°C° 0 mm 2 mps 637 mmHg 72%
    03:00 -8°C° 0 mm 2 mps 636 mmHg 66%
    04:00 -8°C° 0 mm 2 mps 636 mmHg 62%
    05:00 -8°C° 0 mm 2 mps 636 mmHg 58%
    06:00 -8°C° 0 mm 2 mps 636 mmHg 53%
    07:00 -7°C° 0 mm 2 mps 636 mmHg 51%
    08:00 -6°C° 0 mm 2 mps 636 mmHg 48%
    09:00 -4°C° 0 mm 2 mps 637 mmHg 45%
    10:00 -3°C° 0 mm 2 mps 637 mmHg 46%
    11:00 -1°C° 0 mm 2 mps 637 mmHg 47%
    12:00 +2°C° 0 mm 2 mps 637 mmHg 48%
    13:00 +2°C° 0.2 mm 2 mps 635 mmHg 55%
    14:00 +3°C° 0.2 mm 1 mps 634 mmHg 63%
    15:00 +3°C° 0.2 mm 1 mps 633 mmHg 70%
    16:00 +2°C° 0.8 mm 1 mps 633 mmHg 74%
    17:00 -1°C° 0.8 mm 2 mps 632 mmHg 79%
    18:00 -2°C° 0.8 mm 2 mps 631 mmHg 83%
    19:00 -2°C° 0.9 mm 2 mps 631 mmHg 84%
    20:00 -2°C° 0.9 mm 3 mps 631 mmHg 85%
    21:00 -2°C° 0.9 mm 3 mps 630 mmHg 86%
    22:00 -4°C° 1.4 mm 3 mps 630 mmHg 86%
    23:00 -4°C° 1.4 mm 3 mps 630 mmHg 87%

    23 January, Wednesday

    Time Temperature Precipitation Wind Pressure Humidity
    00:00 -4°C° 1.4 mm 3 mps 629 mmHg 88%
    01:00 -4°C° 1.4 mm 3 mps 629 mmHg 88%
    02:00 -3°C° 1.4 mm 2 mps 629 mmHg 88%
    03:00 -3°C° 1.4 mm 2 mps 628 mmHg 88%
    04:00 -3°C° 0.8 mm 2 mps 627 mmHg 88%
    05:00 -3°C° 0.8 mm 2 mps 626 mmHg 87%
    06:00 -3°C° 0.8 mm 2 mps 626 mmHg 87%
    07:00 -2°C° 1.1 mm 3 mps 625 mmHg 88%
    08:00 -2°C° 1.1 mm 3 mps 624 mmHg 88%
    09:00 -2°C° 1.1 mm 4 mps 624 mmHg 88%
    10:00 -2°C° 3.3 mm 4 mps 623 mmHg 89%
    11:00 0°C° 3.3 mm 3 mps 623 mmHg 89%
    12:00 +1°C° 3.3 mm 3 mps 623 mmHg 89%
    13:00 0°C° 3.3 mm 3 mps 622 mmHg 90%
    14:00 0°C° 3.3 mm 3 mps 621 mmHg 91%
    15:00 0°C° 3.3 mm 3 mps 621 mmHg 91%
    16:00 0°C° 3.2 mm 3 mps 620 mmHg 92%
    17:00 -1°C° 3.2 mm 3 mps 620 mmHg 93%
    18:00 -1°C° 3.2 mm 3 mps 620 mmHg 94%
    19:00 -2°C° 3.6 mm 3 mps 620 mmHg 94%
    20:00 -4°C° 3.6 mm 4 mps 619 mmHg 95%
    21:00 -5°C° 3.6 mm 4 mps 619 mmHg 96%
    22:00 -7°C° 2.8 mm 4 mps 619 mmHg 96%
    23:00 -7°C° 2.8 mm 5 mps 619 mmHg 97%
    Show more